Weather History for Wright-Patt AFB, OH

Change the Weather History Date:

Thursday, January 17, 2013

  Actual Average Record
Temperature  
Mean Temperature 34 °F -  
Max Temperature 41 °F 32 °F 55 °F (2006)
Min Temperature 24 °F 16 °F -7 °F (2009)
Degree Days  
Heating Degree Days 32    
Moisture  
Dew Point 21 °F    
Average Humidity 62    
Maximum Humidity 73    
Minimum Humidity 48    
Precipitation  
Precipitation 0.00 in - - ()
Sea Level Pressure  
Sea Level Pressure 30.21 in    
Wind  
Wind Speed 7 mph (WNW)    
Max Wind Speed 15 mph    
Max Gust Speed 21 mph    
Visibility 10 miles    
Events      
Averages and records for this station are not official NWS values.
T = Trace of Precipitation, MM = Missing Value Source: NWS Daily Summary

Daily Weather History Graph

Daily Weather History Graph

Search for Another Location

Airport:

Trip Planner

Search our weather history database for the weather conditions in past years. The results will help you decide how hot, cold, wet, or windy it might be!

Date:

Astronomy

Jan. 17, 2013 Rise Set
Actual Time 7:54 AM EST 5:38 PM EST
Civil Twilight 7:25 AM EST 6:07 PM EST
Nautical Twilight 6:52 AM EST 6:41 PM EST
Astronomical Twilight 6:19 AM EST 7:13 PM EST
Moon 11:01 AM EST (1/17) No Moon Set
Length of Visible Light 10h 42m
Length of Day
9h 43m
Waxing Crescent, 37% of the Moon is Illuminated
Jan 17
Waxing Crescent
Jan 18
First Quarter
Jan 26
Full
Feb 3
Last Quarter
Feb 10
New

Hourly Weather History & Observations

Time (EST) Temp. Windchill Dew Point Humidity Pressure Visibility Wind Dir Wind Speed Gust Speed Precip Events Conditions
12:55 AM 32.0 °F 25.6 °F 21.2 °F 64% 30.11 in 10.0 mi SW 6.9 mph - N/A   Overcast
1:55 AM 32.0 °F 24.8 °F 20.7 °F 63% 30.12 in 10.0 mi SW 8.1 mph - N/A   Overcast
2:55 AM 30.4 °F 23.6 °F 20.5 °F 67% 30.13 in 10.0 mi SW 6.9 mph - N/A   Overcast
3:13 AM 30.2 °F 24.3 °F 21.2 °F 69% 30.14 in 10.0 mi SW 5.8 mph - N/A   Mostly Cloudy
3:55 AM 31.3 °F 26.6 °F 20.7 °F 65% 30.13 in 10.0 mi SW 4.6 mph - N/A   Overcast
4:55 AM 30.2 °F 24.3 °F 21.2 °F 69% 30.15 in 10.0 mi SW 5.8 mph - N/A   Overcast
5:55 AM 29.3 °F - 21.0 °F 71% 30.16 in 10.0 mi Calm Calm - N/A   Overcast
6:55 AM 28.6 °F - 20.8 °F 73% 30.17 in 10.0 mi Calm Calm - N/A   Overcast
7:55 AM 30.6 °F 25.8 °F 21.9 °F 70% 30.19 in 10.0 mi NW 4.6 mph - N/A   Overcast
8:55 AM 31.3 °F 27.9 °F 22.6 °F 70% 30.22 in 10.0 mi NNW 3.5 mph - N/A   Overcast
9:55 AM 32.4 °F - 23.4 °F 69% 30.24 in 10.0 mi Calm Calm - N/A   Overcast
10:55 AM 33.8 °F 29.6 °F 24.1 °F 68% 30.24 in 10.0 mi NNW 4.6 mph - N/A   Mostly Cloudy
11:55 AM 35.2 °F 29.5 °F 24.4 °F 65% 30.22 in 10.0 mi NW 6.9 mph - N/A   Mostly Cloudy
12:55 PM 38.7 °F 32.4 °F 25.2 °F 58% 30.17 in 10.0 mi WNW 9.2 mph - N/A   Mostly Cloudy
1:55 PM 41.5 °F 35.4 °F 23.9 °F 50% 30.14 in 10.0 mi NNW 10.4 mph - N/A   Partly Cloudy
2:19 PM 41.0 °F 33.9 °F 23.0 °F 49% 30.14 in 10.0 mi NW 12.7 mph - N/A   Scattered Clouds
2:55 PM 41.4 °F 34.7 °F 23.2 °F 48% 30.15 in 10.0 mi NW 11.5 mph 20.7 mph N/A   Partly Cloudy
3:55 PM 40.3 °F 32.6 °F 21.9 °F 48% 30.16 in 10.0 mi NW 13.8 mph 20.7 mph N/A   Clear
4:55 PM 38.3 °F 29.7 °F 23.0 °F 54% 30.17 in 10.0 mi WNW 15.0 mph - N/A   Partly Cloudy
5:55 PM 35.8 °F - 23.0 °F 60% 30.24 in 10.0 mi Calm Calm - N/A   Partly Cloudy
6:55 PM 34.5 °F 27.3 °F 20.5 °F 57% 30.27 in 10.0 mi WNW 9.2 mph - N/A   Clear
7:55 PM 32.7 °F 24.5 °F 19.6 °F 58% 30.30 in 10.0 mi WNW 10.4 mph - N/A   Clear
8:55 PM 30.9 °F 21.7 °F 18.3 °F 60% 30.32 in 10.0 mi NW 11.5 mph - N/A   Clear
9:55 PM 29.1 °F 18.4 °F 17.4 °F 62% 30.35 in 10.0 mi NW 13.8 mph - N/A   Partly Cloudy
10:55 PM 27.1 °F 16.4 °F 15.1 °F 60% 30.37 in 10.0 mi NW 12.7 mph - N/A   Mostly Cloudy
11:20 PM 26.6 °F 15.2 °F 14.0 °F 59% 30.38 in 10.0 mi NW 13.8 mph 19.6 mph N/A   Scattered Clouds
11:55 PM 24.8 °F 14.0 °F 13.1 °F 61% 30.41 in 10.0 mi NW 11.5 mph - N/A   Partly Cloudy